This is the latest recevied weather packets stored in our database for station/object EA8BQU-10. If no packets are shown the sender has not sent any weather packets the latest 10 day(s).
| Time | Temp. | Humidity | Pressure | Rain* | Wind** | Luminosity | Snow |
|---|---|---|---|---|---|---|---|
| 1777654842 | 23.89° C | 86% | 1019.2 hPa | - | - | - | - |
| 1777653942 | 23.89° C | 86% | 1019.1 hPa | - | - | - | - |
| 1777653042 | 23.33° C | 87% | 1019.1 hPa | - | - | - | - |
| 1777652142 | 23.33° C | 87% | 1019.2 hPa | - | - | - | - |
| 1777651242 | 23.33° C | 88% | 1019.4 hPa | - | - | - | - |
| 1777650342 | 23.33° C | 88% | 1019.4 hPa | - | - | - | - |
| 1777649442 | 23.33° C | 90% | 1019.4 hPa | - | - | - | - |
| 1777648542 | 22.78° C | 91% | 1019.5 hPa | - | - | - | - |
| 1777647641 | 22.78° C | 91% | 1019.6 hPa | - | - | - | - |
| 1777646740 | 22.78° C | 93% | 1019.7 hPa | - | - | - | - |
| 1777645840 | 22.22° C | 95% | 1019.7 hPa | - | - | - | - |
| 1777644940 | 22.22° C | 97% | 1019.7 hPa | - | - | - | - |
| 1777644040 | 22.22° C | 94% | 1019.8 hPa | - | - | - | - |
| 1777643140 | 22.22° C | 92% | 1019.8 hPa | - | - | - | - |
| 1777642240 | 21.67° C | 93% | 1019.9 hPa | - | - | - | - |
| 1777641340 | 21.11° C | 95% | 1019.9 hPa | - | - | - | - |
| 1777640440 | 21.11° C | 97% | 1020.1 hPa | - | - | - | - |
| 1777639539 | 21.11° C | 97% | 1020.1 hPa | - | - | - | - |
| 1777638639 | 20.56° C | 99% | 1020 hPa | - | - | - | - |
| 1777637739 | 20.56° C | 99% | 1020.1 hPa | - | - | - | - |
| 1777636839 | 20.56° C | 99% | 1020.2 hPa | - | - | - | - |
| 1777635938 | 20.56° C | 100% | 1020.4 hPa | - | - | - | - |
| 1777635042 | 20.56° C | 100% | 1020.2 hPa | - | - | - | - |
| 1777634142 | 20.56° C | 100% | 1020.2 hPa | - | - | - | - |
| 1777633242 | 20.56° C | 99% | 1020.2 hPa | - | - | - | - |
* Rain since midnight (hover to see other rain measurements)
** Current wind speed in m/s (hover to see current wind gust speed)